owner,sensor,date,latitude,longitude,vertical_datum,direction_of_sea_water_velocity,sea_water_speed,upward_sea_water_velocity,qcFlag 
TABS,ioos:station:wmo:42047:1,2002-06-01T00:00:00Z,27.8966,-93.5973,2.0,67.39459062,24.48077,-99999.0,'11111222,11111222,99999999' 
TABS,ioos:station:wmo:42047:1,2002-06-01T00:30:00Z,27.8966,-93.5973,2.0,63.28271606,23.55482329,-99999.0,'11111222,11111222,99999999' 
TABS,ioos:station:wmo:42047:1,2002-06-01T01:00:00Z,27.8966,-93.5973,2.0,69.0957787,19.45025707,-99999.0,'11111222,11111222,99999999' 
TABS,ioos:station:wmo:42047:1,2002-06-01T01:30:00Z,27.8966,-93.5973,2.0,67.23953395,17.86082305,-99999.0,'11111222,11111222,99999999' 
TABS,ioos:station:wmo:42047:1,2002-06-01T02:00:00Z,27.8966,-93.5973,2.0,65.57495583,17.60566102,-99999.0,'11111222,11111222,99999999' 
TABS,ioos:station:wmo:42047:1,2002-06-01T02:30:00Z,27.8966,-93.5973,2.0,72.64387389,15.95651904,-99999.0,'11111222,11111222,99999999' 
TABS,ioos:station:wmo:42047:1,2002-06-01T03:00:00Z,27.8966,-93.5973,2.0,73.06864917,12.29284345,-99999.0,'11111222,11111222,99999999' 
TABS,ioos:station:wmo:42047:1,2002-06-01T03:30:00Z,27.8966,-93.5973,2.0,92.82395369,11.16355678,-99999.0,'11111222,11111222,99999999' 
TABS,ioos:station:wmo:42047:1,2002-06-01T04:00:00Z,27.8966,-93.5973,2.0,89.83328181,10.31004365,-99999.0,'11111222,11111222,99999999' 
TABS,ioos:station:wmo:42047:1,2002-06-01T04:30:00Z,27.8966,-93.5973,2.0,85.30571523,8.919921524,-99999.0,'11133222,11111222,99999999' 
TABS,ioos:station:wmo:42047:1,2002-06-01T05:00:00Z,27.8966,-93.5973,2.0,79.65952384,7.186723871,-99999.0,'11133222,11111222,99999999' 
TABS,ioos:station:wmo:42047:1,2002-06-01T05:30:00Z,27.8966,-93.5973,2.0,43.32185943,5.553170266,-99999.0,'11133222,11111222,99999999' 
TABS,ioos:station:wmo:42047:1,2002-06-01T06:00:00Z,27.8966,-93.5973,2.0,24.15276629,7.649660123,-99999.0,'11133222,11111222,99999999' 
TABS,ioos:station:wmo:42047:1,2002-06-01T06:30:00Z,27.8966,-93.5973,2.0,18.79587391,11.04921717,-99999.0,'11111222,11111222,99999999' 
TABS,ioos:station:wmo:42047:1,2002-06-01T07:00:00Z,27.8966,-93.5973,2.0,19.58087633,7.907275131,-99999.0,'11133222,11111222,99999999' 
TABS,ioos:station:wmo:42047:1,2002-06-01T07:30:00Z,27.8966,-93.5973,2.0,27.57673502,8.359724876,-99999.0,'11133222,11111222,99999999' 
TABS,ioos:station:wmo:42047:1,2002-06-01T08:00:00Z,27.8966,-93.5973,2.0,24.87776348,8.200981649,-99999.0,'11133222,11111222,99999999' 
TABS,ioos:station:wmo:42047:1,2002-06-01T08:30:00Z,27.8966,-93.5973,2.0,15.24221329,11.52541973,-99999.0,'11111222,11111222,99999999' 
TABS,ioos:station:wmo:42047:1,2002-06-01T09:00:00Z,27.8966,-93.5973,2.0,14.34736929,12.06632504,-99999.0,'11111222,11111222,99999999' 
TABS,ioos:station:wmo:42047:1,2002-06-01T09:30:00Z,27.8966,-93.5973,2.0,15.71512026,13.66061858,-99999.0,'11111222,11111222,99999999' 
TABS,ioos:station:wmo:42047:1,2002-06-01T10:00:00Z,27.8966,-93.5973,2.0,14.86768562,12.7053532,-99999.0,'11111222,11111222,99999999' 
TABS,ioos:station:wmo:42047:1,2002-06-01T10:30:00Z,27.8966,-93.5973,2.0,11.22103499,13.87523333,-99999.0,'11111222,11111222,99999999' 
TABS,ioos:station:wmo:42047:1,2002-06-01T11:00:00Z,27.8966,-93.5973,2.0,15.98705383,15.17697269,-99999.0,'11111222,11111222,99999999' 
TABS,ioos:station:wmo:42047:1,2002-06-01T11:30:00Z,27.8966,-93.5973,2.0,20.20245911,16.30297212,-99999.0,'11111222,11111222,99999999' 
TABS,ioos:station:wmo:42047:1,2002-06-01T12:00:00Z,27.8966,-93.5973,2.0,20.61935024,15.93048022,-99999.0,'11111222,11111222,99999999' 
TABS,ioos:station:wmo:42047:1,2002-06-01T12:30:00Z,27.8966,-93.5973,2.0,22.61742289,16.95384617,-99999.0,'11111222,11111222,99999999' 
TABS,ioos:station:wmo:42047:1,2002-06-01T13:00:00Z,27.8966,-93.5973,2.0,28.90280343,17.21415987,-99999.0,'11111222,11111222,99999999' 
TABS,ioos:station:wmo:42047:1,2002-06-01T13:30:00Z,27.8966,-93.5973,2.0,25.77568391,17.20146796,-99999.0,'11111222,11111222,99999999' 
TABS,ioos:station:wmo:42047:1,2002-06-01T14:00:00Z,27.8966,-93.5973,2.0,31.88591856,17.26528308,-99999.0,'11111222,11111222,99999999' 
TABS,ioos:station:wmo:42047:1,2002-06-01T14:30:00Z,27.8966,-93.5973,2.0,30.8255664,17.75873025,-99999.0,'11111222,11111222,99999999' 
TABS,ioos:station:wmo:42047:1,2002-06-01T15:00:00Z,27.8966,-93.5973,2.0,28.37656279,20.51499452,-99999.0,'11111222,11111222,99999999' 
TABS,ioos:station:wmo:42047:1,2002-06-01T15:30:00Z,27.8966,-93.5973,2.0,33.65988004,20.96489685,-99999.0,'11111222,11111222,99999999' 
TABS,ioos:station:wmo:42047:1,2002-06-01T16:00:00Z,27.8966,-93.5973,2.0,29.86539103,20.66423238,-99999.0,'11111222,11111222,99999999' 
TABS,ioos:station:wmo:42047:1,2002-06-01T16:30:00Z,27.8966,-93.5973,2.0,26.7493024,19.48519695,-99999.0,'11111222,11111222,99999999' 
TABS,ioos:station:wmo:42047:1,2002-06-01T17:00:00Z,27.8966,-93.5973,2.0,31.90398092,21.53283075,-99999.0,'11111222,11111222,99999999' 
TABS,ioos:station:wmo:42047:1,2002-06-01T17:30:00Z,27.8966,-93.5973,2.0,30.42478085,20.59617683,-99999.0,'11111222,11111222,99999999' 
TABS,ioos:station:wmo:42047:1,2002-06-01T18:00:00Z,27.8966,-93.5973,2.0,25.78777642,19.44663724,-99999.0,'11111222,11111222,99999999' 
TABS,ioos:station:wmo:42047:1,2002-06-01T18:30:00Z,27.8966,-93.5973,2.0,31.90624265,18.35283084,-99999.0,'11111222,11111222,99999999' 
TABS,ioos:station:wmo:42047:1,2002-06-01T19:00:00Z,27.8966,-93.5973,2.0,33.5611358,18.46878989,-99999.0,'11111222,11111222,99999999' 
TABS,ioos:station:wmo:42047:1,2002-06-01T19:30:00Z,27.8966,-93.5973,2.0,35.75301252,18.5695288,-99999.0,'11111222,11111222,99999999' 
TABS,ioos:station:wmo:42047:1,2002-06-01T20:00:00Z,27.8966,-93.5973,2.0,28.02292678,18.9858895,-99999.0,'11111222,11111222,99999999' 
TABS,ioos:station:wmo:42047:1,2002-06-01T20:30:00Z,27.8966,-93.5973,2.0,31.72226328,18.01064408,-99999.0,'11111222,11111222,99999999' 
TABS,ioos:station:wmo:42047:1,2002-06-01T21:00:00Z,27.8966,-93.5973,2.0,29.77505726,18.92894345,-99999.0,'11111222,11111222,99999999' 
TABS,ioos:station:wmo:42047:1,2002-06-01T21:30:00Z,27.8966,-93.5973,2.0,35.6926676,18.4939044,-99999.0,'11111222,11111222,99999999' 
TABS,ioos:station:wmo:42047:1,2002-06-01T22:00:00Z,27.8966,-93.5973,2.0,35.61258585,19.59471868,-99999.0,'11111222,11111222,99999999' 
TABS,ioos:station:wmo:42047:1,2002-06-01T22:30:00Z,27.8966,-93.5973,2.0,34.15062642,22.08887503,-99999.0,'11111222,11111222,99999999' 
TABS,ioos:station:wmo:42047:1,2002-06-01T23:00:00Z,27.8966,-93.5973,2.0,37.31767819,20.73463286,-99999.0,'11111222,11111222,99999999' 
TABS,ioos:station:wmo:42047:1,2002-06-01T23:30:00Z,27.8966,-93.5973,2.0,36.67832294,20.32411376,-99999.0,'11111222,11111222,99999999' 
TABS,ioos:station:wmo:42047:1,2002-06-02T00:00:00Z,27.8966,-93.5973,2.0,43.20382412,19.85117125,-99999.0,'11111222,11111222,99999999' 
TABS,ioos:station:wmo:42047:1,2002-06-02T00:30:00Z,27.8966,-93.5973,2.0,47.42732865,19.20103383,-99999.0,'11111222,11111222,99999999' 
TABS,ioos:station:wmo:42047:1,2002-06-02T01:00:00Z,27.8966,-93.5973,2.0,44.78533705,16.97775309,-99999.0,'11111222,11111222,99999999' 
TABS,ioos:station:wmo:42047:1,2002-06-02T01:30:00Z,27.8966,-93.5973,2.0,53.39385068,15.64616566,-99999.0,'11111222,11111222,99999999' 
TABS,ioos:station:wmo:42047:1,2002-06-02T02:00:00Z,27.8966,-93.5973,2.0,56.56877794,14.73853453,-99999.0,'11111222,11111222,99999999' 
TABS,ioos:station:wmo:42047:1,2002-06-02T02:30:00Z,27.8966,-93.5973,2.0,57.11028546,16.48175051,-99999.0,'11111222,11111222,99999999' 
TABS,ioos:station:wmo:42047:1,2002-06-02T03:00:00Z,27.8966,-93.5973,2.0,57.980348,16.93664666,-99999.0,'11111222,11111222,99999999' 
TABS,ioos:station:wmo:42047:1,2002-06-02T03:30:00Z,27.8966,-93.5973,2.0,51.9163089,17.08783485,-99999.0,'11111222,11111222,99999999' 
TABS,ioos:station:wmo:42047:1,2002-06-02T04:00:00Z,27.8966,-93.5973,2.0,57.00453673,14.41494363,-99999.0,'11111222,11111222,99999999' 
TABS,ioos:station:wmo:42047:1,2002-06-02T04:30:00Z,27.8966,-93.5973,2.0,46.42955204,15.30655415,-99999.0,'11111222,11111222,99999999' 
TABS,ioos:station:wmo:42047:1,2002-06-02T05:00:00Z,27.8966,-93.5973,2.0,47.59877259,14.19208582,-99999.0,'11111222,11111222,99999999' 
TABS,ioos:station:wmo:42047:1,2002-06-02T05:30:00Z,27.8966,-93.5973,2.0,50.46773481,14.76794163,-99999.0,'11111222,11111222,99999999' 
TABS,ioos:station:wmo:42047:1,2002-06-02T06:00:00Z,27.8966,-93.5973,2.0,40.56828172,15.00725158,-99999.0,'11111222,11111222,99999999' 
TABS,ioos:station:wmo:42047:1,2002-06-02T06:30:00Z,27.8966,-93.5973,2.0,42.20340327,14.78199581,-99999.0,'11111222,11111222,99999999' 
TABS,ioos:station:wmo:42047:1,2002-06-02T07:00:00Z,27.8966,-93.5973,2.0,42.25678716,13.59202707,-99999.0,'11111222,11111222,99999999' 
TABS,ioos:station:wmo:42047:1,2002-06-02T07:30:00Z,27.8966,-93.5973,2.0,39.05325608,13.64990842,-99999.0,'11111222,11111222,99999999' 
TABS,ioos:station:wmo:42047:1,2002-06-02T08:00:00Z,27.8966,-93.5973,2.0,33.77884634,10.75564968,-99999.0,'11111222,11111222,99999999' 
TABS,ioos:station:wmo:42047:1,2002-06-02T08:30:00Z,27.8966,-93.5973,2.0,29.76987123,11.43972465,-99999.0,'11111222,11111222,99999999' 
TABS,ioos:station:wmo:42047:1,2002-06-02T09:00:00Z,27.8966,-93.5973,2.0,31.99523789,11.81473656,-99999.0,'11111222,11111222,99999999' 
TABS,ioos:station:wmo:42047:1,2002-06-02T09:30:00Z,27.8966,-93.5973,2.0,28.69379235,12.64250766,-99999.0,'11111222,11111222,99999999' 
TABS,ioos:station:wmo:42047:1,2002-06-02T10:00:00Z,27.8966,-93.5973,2.0,29.77434943,14.53935349,-99999.0,'11111222,11111222,99999999' 
TABS,ioos:station:wmo:42047:1,2002-06-02T10:30:00Z,27.8966,-93.5973,2.0,25.11120639,12.8660056,-99999.0,'11111222,11111222,99999999' 
TABS,ioos:station:wmo:42047:1,2002-06-02T11:00:00Z,27.8966,-93.5973,2.0,21.00955096,13.16520034,-99999.0,'11111222,11111222,99999999' 
TABS,ioos:station:wmo:42047:1,2002-06-02T11:30:00Z,27.8966,-93.5973,2.0,24.21469388,13.84844035,-99999.0,'11111222,11111222,99999999' 
TABS,ioos:station:wmo:42047:1,2002-06-02T12:00:00Z,27.8966,-93.5973,2.0,27.49721777,13.47185585,-99999.0,'11111222,11111222,99999999' 
TABS,ioos:station:wmo:42047:1,2002-06-02T12:30:00Z,27.8966,-93.5973,2.0,26.5844069,13.3403823,-99999.0,'11111222,11111222,99999999' 
TABS,ioos:station:wmo:42047:1,2002-06-02T13:00:00Z,27.8966,-93.5973,2.0,35.47733238,14.31822964,-99999.0,'11111222,11111222,99999999' 
TABS,ioos:station:wmo:42047:1,2002-06-02T13:30:00Z,27.8966,-93.5973,2.0,34.57614372,13.99121153,-99999.0,'11111222,11111222,99999999' 
TABS,ioos:station:wmo:42047:1,2002-06-02T14:00:00Z,27.8966,-93.5973,2.0,43.39464158,14.13354167,-99999.0,'11111222,11111222,99999999' 
TABS,ioos:station:wmo:42047:1,2002-06-02T14:30:00Z,27.8966,-93.5973,2.0,38.25246771,12.51764355,-99999.0,'11111222,11111222,99999999' 
TABS,ioos:station:wmo:42047:1,2002-06-02T15:00:00Z,27.8966,-93.5973,2.0,32.23384397,12.76777584,-99999.0,'11111222,11111222,99999999' 
TABS,ioos:station:wmo:42047:1,2002-06-02T15:30:00Z,27.8966,-93.5973,2.0,33.6489892,11.56827558,-99999.0,'11111222,11111222,99999999' 
TABS,ioos:station:wmo:42047:1,2002-06-02T16:00:00Z,27.8966,-93.5973,2.0,23.67414344,12.50211582,-99999.0,'11111222,11111222,99999999' 
TABS,ioos:station:wmo:42047:1,2002-06-02T16:30:00Z,27.8966,-93.5973,2.0,25.63804141,13.26609211,-99999.0,'11111222,11111222,99999999' 
TABS,ioos:station:wmo:42047:1,2002-06-02T17:00:00Z,27.8966,-93.5973,2.0,21.89558865,11.31628914,-99999.0,'11111222,11111222,99999999' 
TABS,ioos:station:wmo:42047:1,2002-06-02T17:30:00Z,27.8966,-93.5973,2.0,9.163913279,13.24909431,-99999.0,'11111222,11111222,99999999' 
TABS,ioos:station:wmo:42047:1,2002-06-02T18:00:00Z,27.8966,-93.5973,2.0,13.08634859,13.60326799,-99999.0,'11111222,11111222,99999999' 
TABS,ioos:station:wmo:42047:1,2002-06-02T18:30:00Z,27.8966,-93.5973,2.0,14.54401044,13.14109584,-99999.0,'11111222,11111222,99999999' 
TABS,ioos:station:wmo:42047:1,2002-06-02T19:00:00Z,27.8966,-93.5973,2.0,10.76708447,13.86407227,-99999.0,'11111222,11111222,99999999' 
TABS,ioos:station:wmo:42047:1,2002-06-02T19:30:00Z,27.8966,-93.5973,2.0,16.43198572,16.82727548,-99999.0,'11111222,11111222,99999999' 
TABS,ioos:station:wmo:42047:1,2002-06-02T20:00:00Z,27.8966,-93.5973,2.0,18.81951264,18.38273375,-99999.0,'11111222,11111222,99999999' 
TABS,ioos:station:wmo:42047:1,2002-06-02T20:30:00Z,27.8966,-93.5973,2.0,15.78779232,20.95031265,-99999.0,'11111222,11111222,99999999' 
TABS,ioos:station:wmo:42047:1,2002-06-02T21:00:00Z,27.8966,-93.5973,2.0,18.21923307,20.98186121,-99999.0,'11111222,11111222,99999999' 
TABS,ioos:station:wmo:42047:1,2002-06-02T21:30:00Z,27.8966,-93.5973,2.0,21.75885353,22.41714745,-99999.0,'11111222,11111222,99999999' 
TABS,ioos:station:wmo:42047:1,2002-06-02T22:00:00Z,27.8966,-93.5973,2.0,18.39878413,24.93456436,-99999.0,'11111222,11111222,99999999' 
TABS,ioos:station:wmo:42047:1,2002-06-02T22:30:00Z,27.8966,-93.5973,2.0,24.46273004,22.91723587,-99999.0,'11111222,11111222,99999999' 
TABS,ioos:station:wmo:42047:1,2002-06-02T23:00:00Z,27.8966,-93.5973,2.0,24.15162672,24.31868829,-99999.0,'11111222,11111222,99999999' 
TABS,ioos:station:wmo:42047:1,2002-06-02T23:30:00Z,27.8966,-93.5973,2.0,27.85189708,22.90311114,-99999.0,'11111222,11111222,99999999' 
TABS,ioos:station:wmo:42047:1,2002-06-03T00:00:00Z,27.8966,-93.5973,2.0,31.0046802,24.09212734,-99999.0,'11111222,11111222,99999999' 
TABS,ioos:station:wmo:42047:1,2002-06-03T00:30:00Z,27.8966,-93.5973,2.0,36.21896303,23.76153404,-99999.0,'11111222,11111222,99999999' 
TABS,ioos:station:wmo:42047:1,2002-06-03T01:00:00Z,27.8966,-93.5973,2.0,38.84366126,21.42871205,-99999.0,'11111222,11111222,99999999' 
TABS,ioos:station:wmo:42047:1,2002-06-03T01:30:00Z,27.8966,-93.5973,2.0,41.01204595,19.82578372,-99999.0,'11111222,11111222,99999999' 
TABS,ioos:station:wmo:42047:1,2002-06-03T02:00:00Z,27.8966,-93.5973,2.0,39.38050366,19.49671254,-99999.0,'11111222,11111222,99999999' 
TABS,ioos:station:wmo:42047:1,2002-06-03T02:30:00Z,27.8966,-93.5973,2.0,43.06807619,18.87633969,-99999.0,'11111222,11111222,99999999' 
TABS,ioos:station:wmo:42047:1,2002-06-03T03:00:00Z,27.8966,-93.5973,2.0,41.28860531,19.44379078,-99999.0,'11111222,11111222,99999999' 
TABS,ioos:station:wmo:42047:1,2002-06-03T03:30:00Z,27.8966,-93.5973,2.0,39.99619698,18.48350616,-99999.0,'11111222,11111222,99999999' 
TABS,ioos:station:wmo:42047:1,2002-06-03T04:00:00Z,27.8966,-93.5973,2.0,54.78574964,16.89105089,-99999.0,'11111222,11111222,99999999' 
TABS,ioos:station:wmo:42047:1,2002-06-03T04:30:00Z,27.8966,-93.5973,2.0,45.47327216,19.69359541,-99999.0,'11111222,11111222,99999999' 
TABS,ioos:station:wmo:42047:1,2002-06-03T05:00:00Z,27.8966,-93.5973,2.0,46.48972719,17.95243716,-99999.0,'11111222,11111222,99999999' 
TABS,ioos:station:wmo:42047:1,2002-06-03T05:30:00Z,27.8966,-93.5973,2.0,50.93825021,17.36070275,-99999.0,'11111222,11111222,99999999' 
TABS,ioos:station:wmo:42047:1,2002-06-03T06:00:00Z,27.8966,-93.5973,2.0,59.55596262,16.26216468,-99999.0,'11111222,11111222,99999999' 
TABS,ioos:station:wmo:42047:1,2002-06-03T06:30:00Z,27.8966,-93.5973,2.0,59.14503613,15.3645859,-99999.0,'11111222,11111222,99999999' 
TABS,ioos:station:wmo:42047:1,2002-06-03T07:00:00Z,27.8966,-93.5973,2.0,59.4402488,13.86600519,-99999.0,'11111222,11111222,99999999' 
TABS,ioos:station:wmo:42047:1,2002-06-03T07:30:00Z,27.8966,-93.5973,2.0,49.00192245,12.05728411,-99999.0,'11111222,11111222,99999999' 
TABS,ioos:station:wmo:42047:1,2002-06-03T08:00:00Z,27.8966,-93.5973,2.0,57.51637459,10.53886616,-99999.0,'11111222,11111222,99999999' 
TABS,ioos:station:wmo:42047:1,2002-06-03T08:30:00Z,27.8966,-93.5973,2.0,41.23960332,9.056323757,-99999.0,'11133222,11111222,99999999' 
TABS,ioos:station:wmo:42047:1,2002-06-03T09:00:00Z,27.8966,-93.5973,2.0,47.70304295,9.896362968,-99999.0,'11133222,11111222,99999999' 
TABS,ioos:station:wmo:42047:1,2002-06-03T09:30:00Z,27.8966,-93.5973,2.0,47.82085729,10.20176945,-99999.0,'11111222,11111222,99999999' 
TABS,ioos:station:wmo:42047:1,2002-06-03T10:00:00Z,27.8966,-93.5973,2.0,47.21008218,8.434986663,-99999.0,'11133222,11111222,99999999' 
TABS,ioos:station:wmo:42047:1,2002-06-03T10:30:00Z,27.8966,-93.5973,2.0,47.1181232,9.757668779,-99999.0,'11133222,11111222,99999999' 
TABS,ioos:station:wmo:42047:1,2002-06-03T11:00:00Z,27.8966,-93.5973,2.0,41.39311798,9.89080381,-99999.0,'11133222,11111222,99999999' 
TABS,ioos:station:wmo:42047:1,2002-06-03T11:30:00Z,27.8966,-93.5973,2.0,51.07254744,9.358033982,-99999.0,'11133222,11111222,99999999' 
TABS,ioos:station:wmo:42047:1,2002-06-03T12:00:00Z,27.8966,-93.5973,2.0,47.45516144,11.2250167,-99999.0,'11111222,11111222,99999999' 
TABS,ioos:station:wmo:42047:1,2002-06-03T12:30:00Z,27.8966,-93.5973,2.0,46.59483166,9.401090362,-99999.0,'11133222,11111222,99999999' 
TABS,ioos:station:wmo:42047:1,2002-06-03T13:00:00Z,27.8966,-93.5973,2.0,45.11064332,10.99553091,-99999.0,'11111222,11111222,99999999' 
TABS,ioos:station:wmo:42047:1,2002-06-03T13:30:00Z,27.8966,-93.5973,2.0,49.73946825,13.86427063,-99999.0,'11111222,11111222,99999999' 
TABS,ioos:station:wmo:42047:1,2002-06-03T14:00:00Z,27.8966,-93.5973,2.0,49.47955521,13.85210814,-99999.0,'11111222,11111222,99999999' 
TABS,ioos:station:wmo:42047:1,2002-06-03T14:30:00Z,27.8966,-93.5973,2.0,46.16449055,13.91873557,-99999.0,'11111222,11111222,99999999' 
TABS,ioos:station:wmo:42047:1,2002-06-03T15:00:00Z,27.8966,-93.5973,2.0,44.06487234,13.42974683,-99999.0,'11111222,11111222,99999999' 
TABS,ioos:station:wmo:42047:1,2002-06-03T15:30:00Z,27.8966,-93.5973,2.0,53.06388516,12.0980081,-99999.0,'11111222,11111222,99999999' 
TABS,ioos:station:wmo:42047:1,2002-06-03T16:00:00Z,27.8966,-93.5973,2.0,56.64409287,12.36725111,-99999.0,'11111222,11111222,99999999' 
TABS,ioos:station:wmo:42047:1,2002-06-03T16:30:00Z,27.8966,-93.5973,2.0,52.83863413,12.18415775,-99999.0,'11111222,11111222,99999999' 
TABS,ioos:station:wmo:42047:1,2002-06-03T17:00:00Z,27.8966,-93.5973,2.0,53.41874842,14.29618131,-99999.0,'11111222,11111222,99999999' 
TABS,ioos:station:wmo:42047:1,2002-06-03T17:30:00Z,27.8966,-93.5973,2.0,70.00416241,11.4928195,-99999.0,'11111222,11111222,99999999' 
TABS,ioos:station:wmo:42047:1,2002-06-03T18:00:00Z,27.8966,-93.5973,2.0,70.95143508,9.743536319,-99999.0,'11133222,11111222,99999999' 
TABS,ioos:station:wmo:42047:1,2002-06-03T18:30:00Z,27.8966,-93.5973,2.0,87.58159391,7.346543405,-99999.0,'11133222,11111222,99999999' 
TABS,ioos:station:wmo:42047:1,2002-06-03T19:00:00Z,27.8966,-93.5973,2.0,69.47118939,9.866569819,-99999.0,'11133222,11111222,99999999' 
TABS,ioos:station:wmo:42047:1,2002-06-03T19:30:00Z,27.8966,-93.5973,2.0,78.72478356,9.717556277,-99999.0,'11133222,11111222,99999999' 
TABS,ioos:station:wmo:42047:1,2002-06-03T20:00:00Z,27.8966,-93.5973,2.0,45.78413253,13.95252307,-99999.0,'11111222,11111222,99999999' 
TABS,ioos:station:wmo:42047:1,2002-06-03T20:30:00Z,27.8966,-93.5973,2.0,50.82113118,12.41007655,-99999.0,'11111222,11111222,99999999' 
TABS,ioos:station:wmo:42047:1,2002-06-03T21:00:00Z,27.8966,-93.5973,2.0,41.53657212,15.68399184,-99999.0,'11111222,11111222,99999999' 
TABS,ioos:station:wmo:42047:1,2002-06-03T21:30:00Z,27.8966,-93.5973,2.0,30.64444786,17.22558562,-99999.0,'11111222,11111222,99999999' 
TABS,ioos:station:wmo:42047:1,2002-06-03T22:00:00Z,27.8966,-93.5973,2.0,37.45689658,18.74498333,-99999.0,'11111222,11111222,99999999' 
TABS,ioos:station:wmo:42047:1,2002-06-03T22:30:00Z,27.8966,-93.5973,2.0,34.70817857,19.67,-99999.0,'11111222,11111222,99999999' 
TABS,ioos:station:wmo:42047:1,2002-06-03T23:00:00Z,27.8966,-93.5973,2.0,39.70434221,20.9916793,-99999.0,'11111222,11111222,99999999' 
TABS,ioos:station:wmo:42047:1,2002-06-03T23:30:00Z,27.8966,-93.5973,2.0,39.8733578,21.68178037,-99999.0,'11111222,11111222,99999999' 
TABS,ioos:station:wmo:42047:1,2002-06-04T00:00:00Z,27.8966,-93.5973,2.0,36.73934575,19.29205018,-99999.0,'11111222,11111222,99999999' 
TABS,ioos:station:wmo:42047:1,2002-06-04T00:30:00Z,27.8966,-93.5973,2.0,40.36136778,19.93499937,-99999.0,'11111222,11111222,99999999' 
TABS,ioos:station:wmo:42047:1,2002-06-04T01:00:00Z,27.8966,-93.5973,2.0,46.79057646,22.4050106,-99999.0,'11111222,11111222,99999999' 
TABS,ioos:station:wmo:42047:1,2002-06-04T01:30:00Z,27.8966,-93.5973,2.0,45.23603782,22.32355034,-99999.0,'11111222,11111222,99999999' 
TABS,ioos:station:wmo:42047:1,2002-06-04T02:00:00Z,27.8966,-93.5973,2.0,48.97572888,19.6837217,-99999.0,'11111222,11111222,99999999' 
TABS,ioos:station:wmo:42047:1,2002-06-04T02:30:00Z,27.8966,-93.5973,2.0,43.70589345,17.8448564,-99999.0,'11111222,11111222,99999999' 
TABS,ioos:station:wmo:42047:1,2002-06-04T03:00:00Z,27.8966,-93.5973,2.0,47.48188527,18.12600618,-99999.0,'11111222,11111222,99999999' 
TABS,ioos:station:wmo:42047:1,2002-06-04T03:30:00Z,27.8966,-93.5973,2.0,44.45345732,15.56412863,-99999.0,'11111222,11111222,99999999' 
TABS,ioos:station:wmo:42047:1,2002-06-04T04:00:00Z,27.8966,-93.5973,2.0,36.27592113,15.43082953,-99999.0,'11111222,11111222,99999999' 
TABS,ioos:station:wmo:42047:1,2002-06-04T04:30:00Z,27.8966,-93.5973,2.0,25.63838855,14.92994307,-99999.0,'11111222,11111222,99999999' 
TABS,ioos:station:wmo:42047:1,2002-06-04T05:00:00Z,27.8966,-93.5973,2.0,18.34652615,16.36164417,-99999.0,'11111222,11111222,99999999' 
TABS,ioos:station:wmo:42047:1,2002-06-04T05:30:00Z,27.8966,-93.5973,2.0,16.23252316,18.10160214,-99999.0,'11111222,11111222,99999999' 
TABS,ioos:station:wmo:42047:1,2002-06-04T06:00:00Z,27.8966,-93.5973,2.0,22.83219923,17.24088745,-99999.0,'11111222,11111222,99999999' 
TABS,ioos:station:wmo:42047:1,2002-06-04T06:30:00Z,27.8966,-93.5973,2.0,15.67589249,17.80212628,-99999.0,'11111222,11111222,99999999' 
TABS,ioos:station:wmo:42047:1,2002-06-04T07:00:00Z,27.8966,-93.5973,2.0,20.9099042,17.06375398,-99999.0,'11111222,11111222,99999999' 
TABS,ioos:station:wmo:42047:1,2002-06-04T07:30:00Z,27.8966,-93.5973,2.0,23.28591219,21.57761108,-99999.0,'11111222,11111222,99999999' 
TABS,ioos:station:wmo:42047:1,2002-06-04T08:00:00Z,27.8966,-93.5973,2.0,26.00616883,18.7928098,-99999.0,'11111222,11111222,99999999' 
TABS,ioos:station:wmo:42047:1,2002-06-04T08:30:00Z,27.8966,-93.5973,2.0,19.69218565,18.16216947,-99999.0,'11111222,11111222,99999999' 
TABS,ioos:station:wmo:42047:1,2002-06-04T09:00:00Z,27.8966,-93.5973,2.0,28.92398462,15.32110309,-99999.0,'11111222,11111222,99999999' 
TABS,ioos:station:wmo:42047:1,2002-06-04T09:30:00Z,27.8966,-93.5973,2.0,27.48293467,17.03207856,-99999.0,'11111222,11111222,99999999' 
TABS,ioos:station:wmo:42047:1,2002-06-04T10:00:00Z,27.8966,-93.5973,2.0,26.82034125,16.0685438,-99999.0,'11111222,11111222,99999999' 
TABS,ioos:station:wmo:42047:1,2002-06-04T10:30:00Z,27.8966,-93.5973,2.0,31.95239353,16.00491487,-99999.0,'11111222,11111222,99999999' 
TABS,ioos:station:wmo:42047:1,2002-06-04T11:00:00Z,27.8966,-93.5973,2.0,32.71874633,18.64892758,-99999.0,'11111222,11111222,99999999' 
TABS,ioos:station:wmo:42047:1,2002-06-04T11:30:00Z,27.8966,-93.5973,2.0,31.72949239,18.48233751,-99999.0,'11111222,11111222,99999999' 
TABS,ioos:station:wmo:42047:1,2002-06-04T12:00:00Z,27.8966,-93.5973,2.0,31.88351208,20.40924545,-99999.0,'11111222,11111222,99999999' 
TABS,ioos:station:wmo:42047:1,2002-06-04T12:30:00Z,27.8966,-93.5973,2.0,33.07743491,20.22829948,-99999.0,'11111222,11111222,99999999' 
TABS,ioos:station:wmo:42047:1,2002-06-04T13:00:00Z,27.8966,-93.5973,2.0,37.77306965,20.68456913,-99999.0,'11111222,11111222,99999999' 
TABS,ioos:station:wmo:42047:1,2002-06-04T13:30:00Z,27.8966,-93.5973,2.0,32.85966684,21.04753667,-99999.0,'11111222,11111222,99999999' 
TABS,ioos:station:wmo:42047:1,2002-06-04T14:00:00Z,27.8966,-93.5973,2.0,39.34157453,23.2356149,-99999.0,'11111222,11111222,99999999' 
TABS,ioos:station:wmo:42047:1,2002-06-04T14:30:00Z,27.8966,-93.5973,2.0,46.64886429,20.88951172,-99999.0,'11111222,11111222,99999999' 
TABS,ioos:station:wmo:42047:1,2002-06-04T15:00:00Z,27.8966,-93.5973,2.0,53.35881329,23.05618355,-99999.0,'11111222,11111222,99999999' 
TABS,ioos:station:wmo:42047:1,2002-06-04T15:30:00Z,27.8966,-93.5973,2.0,49.09764024,26.61990421,-99999.0,'11111222,11111222,99999999' 
TABS,ioos:station:wmo:42047:1,2002-06-04T16:00:00Z,27.8966,-93.5973,2.0,56.67770417,26.79534474,-99999.0,'11111222,11111222,99999999' 